Regional Weather Roundup
Issued by NWS

Home | Current Version | Previous Version | Graphics & Text | Print | Product List | Glossary Off
Versions: 1 2 3 4 5 6 7 8 9 10 11 12 13 14 15 16 17 18 19 20 21 22 23 24 25 26 27 28 29 30 31 32 33 34 35 36 37 38 39 40 41 42 43 44 45 46 47 48 49 50

000
ASUS43 KDMX 311707
RWRIA

WEATHER ROUNDUP FOR IOWA
NATIONAL WEATHER SERVICE DES MOINES IA
1200 PM CDT THU JUL 31 2014

NOTE: "FAIR" INDICATES FEW OR NO CLOUDS BELOW 12,000 FEET WITH NO
SIGNIFICANT WEATHER AND/OR OBSTRUCTIONS TO VISIBILITY.

* - THESE STATIONS ARE NOT NWS STATIONS...THUS NOT UNDER NWS
QUALITY CONTROL.  THEY ALSO DO NOT REPORT WEATHER SUCH
AS PRECIPITATION OR FOG.

IAZ001>003-012>014-020>022-031>034-043>046-311800-
   NORTHWEST IOWA

CITY           SKY/WX    TMP DP  RH WIND       PRES   REMARKS
CARROLL *      MOSUNNY   75  57  53 W7        30.11S
CHEROKEE *     MOSUNNY   77  57  50 S3        30.09S
DENISON *      MOSUNNY   75  59  57 W6        30.09S
LE MARS *      PTSUNNY   73  63  68 VRB6      30.09S
ORANGE CITY *  MOSUNNY   75  57  53 SW3       30.09S
SHELDON *      SUNNY     77  59  53 CALM      30.08F
SIOUX CITY     CLOUDY    68  63  84 S3        30.09F
SPENCER        MOSUNNY   77  57  50 CALM      30.09F
STORM LAKE *   SUNNY     75  57  53 S6        30.11F
$$

IAZ055>058-069>071-079>083-090>094-311800-
   SOUTHWEST IOWA

CITY           SKY/WX    TMP DP  RH WIND       PRES   REMARKS
ATLANTIC *     SUNNY     77  59  53 W9        30.10F
AUDUBON *      SUNNY     81  63  54 W5        30.12F HX  82
CLARINDA *     SUNNY     79  57  47 W6        30.13F HX  80
COUNCIL BLFS * SUNNY     79  59  50 VRB7      30.09F HX  80
CRESTON *      MOSUNNY   75  55  50 W7        30.12F
HARLAN  *      SUNNY     77  59  53 SW8       30.14F
LAMONI         MOSUNNY   76  54  46 W5        30.12F
RED OAK *      SUNNY     77  61  57 VRB6      30.11F
SHENANDOAH *   SUNNY     79  61  53 SW5G12    30.12F HX  80
$$

IAZ047>049-059>061-072>074-084-311800-
   CENTRAL IOWA

CITY           SKY/WX    TMP DP  RH WIND       PRES   REMARKS
AMES           SUNNY     76  58  53 CALM      30.09F
ANKENY *       SUNNY     77  59  53 VRB5      30.10S
CHARITON *     MOSUNNY   77  57  50 CALM      30.12S
DES MOINES     MOSUNNY   80  57  45 VRB3      30.10S HX  80
GRINNELL*      SUNNY     75  59  57 W5        30.10F
KNOXVILLE *    SUNNY     77  57  50 W7        30.10S
MARSHALLTOWN   SUNNY     78  60  53 NW5       30.09S
PELLA *        SUNNY     79  59  50 W6        30.11S HX  80
PERRY *        PTSUNNY   77  57  50 W3        30.10F
$$

IAZ004>006-015-016-023>025-035-036-311800-
   NORTH CENTRAL IOWA

CITY           SKY/WX    TMP DP  RH WIND       PRES   REMARKS
ALGONA *       SUNNY     77  57  50 VRB7      30.09F
CLARION *      SUNNY     75  57  53 VRB5G13   30.10S
ESTHERVILLE    MOSUNNY   75  57  53 NW7       30.08F
FORT DODGE *   MOSUNNY   77  59  53 W5        30.11S
MASON CITY     MOSUNNY   77  58  51 W6        30.10S
FOREST CITY *  PTSUNNY   75  59  57 NW3       30.09
IOWA FALLS *     N/A     77  57  50 W6        30.10F
$$

IAZ007>011-017>019-026>030-037>042-050>054-066-311800-
   NORTHEAST IOWA

CITY           SKY/WX    TMP DP  RH WIND       PRES   REMARKS
CEDAR RAPIDS   MOSUNNY   78  61  55 W9        30.08S HX  80
CHARLES CITY * PTSUNNY   75  57  53 NW8       30.09S
CLINTON *      SUNNY     77  63  61 W9        30.10F
DECORAH *      MOSUNNY   75  59  57 NW8       30.07S
DUBUQUE        PTSUNNY   76  60  57 W10       30.08S
MONTICELLO *   SUNNY     77  61  57 W10G17    30.08S
OELWEIN *      SUNNY     75  59  57 NW8G16    30.09F
WATERLOO       SUNNY     78  56  46 W10       30.07F
$$

IAZ064-065-067-068-078-311800-
   EAST CENTRAL IOWA

CITY           SKY/WX    TMP DP  RH WIND       PRES   REMARKS
DAVENPORT      SUNNY     78  62  57 W12       30.09S HX  80
IOWA CITY      SUNNY     78  62  57 W7        30.10S HX  80
MT. PLEASANT * MOSUNNY   79  61  53 W6        30.10S HX  80
MUSCATINE *    SUNNY     81  61  50 W10       30.09S HX  81
QUAD CITIES    SUNNY     80  60  50 W9        30.08S HX  81
$$

IAZ062-063-075>077-085>089-095>099-311800-
   SOUTHEAST IOWA

CITY           SKY/WX    TMP DP  RH WIND       PRES   REMARKS
BURLINGTON     SUNNY     78  62  57 SW6       30.09F HX  80
FAIRFIELD *    SUNNY     77  63  61 VRB3      30.11S
FORT MADISON * SUNNY     81  63  54 SW5       30.11S HX  82
KEOKUK *       SUNNY     77  61  57 W7        30.10S
OSKALOOSA *      N/A     77  61  57 SW5       30.11S
CENTERVILLE *  MOSUNNY   75  59  57 W7        30.13S
OTTUMWA        SUNNY     76  62  62 VRB6      30.10F
WASHINGTON *   SUNNY     79  64  61 W8        30.10S HX  81
$$

ABBREVIATIONS USED IN REMARKS
   TC - TEMPERATURES IN CELSIUS
  WCI - WIND CHILL INDEX
   HX - HEAT INDEX
  VSB - VISIBILITY
$$




USA.gov is the U.S. government's official web portal to all federal, state and local government web resources and services.